Kirtland AFB, NM

5:13 PM MST on January 19, 2017 (GMT -0700)
Albuquerque International Sunport

Weather History for KABQ - October, 2013

Change the Weather History Date:

Saturday, October 26, 2013

  Actual Average Record
Temperature  
Mean Temperature 54 °F 54 °F  
Max Temperature 67 °F 65 °F 82 °F (1979)
Min Temperature 41 °F 42 °F 25 °F (1916)
Degree Days  
Heating Degree Days 11 11  
Month to date heating degree days 216 178  
Since 1 July heating degree days 240 204  
Cooling Degree Days 0 0  
Month to date cooling degree days 1 7  
Year to date cooling degree days 1565 1319  
Growing Degree Days 4 (Base 50)    
Moisture  
Dew Point 38 °F    
Average Humidity 59    
Maximum Humidity 83    
Minimum Humidity 34    
Precipitation  
Precipitation 0.00 in 0.02 in 0.40 in (1994)
Month to date precipitation 0.16 0.90  
Year to date precipitation 8.02 8.26  
Snow  
Snow 0.00 in - - ()
Month to date snowfall 0.0  
Since 1 July snowfall 0.0  
Since 1 September snowfall 0.0  
Snow Depth 0.00 in    
Sea Level Pressure  
Sea Level Pressure 30.20 in    
Wind  
Wind Speed 3 mph (ENE)    
Max Wind Speed 9 mph    
Max Gust Speed 12 mph    
Visibility 10 miles    
Events      
T = Trace of Precipitation, MM = Missing Value Source: NWS Daily Summary

Daily Weather History Graph

Daily Weather History Graph

Search for Another Location

Airport or City:

Trip Planner

Search our weather history database for the weather conditions in past years. The results will help you decide how hot, cold, wet, or windy it might be!

Date:

Astronomy

Oct. 26, 2013 Rise Set
Actual Time 7:22 AM MDT 6:17 PM MDT
Civil Twilight 6:56 AM MDT 6:43 PM MDT
Nautical Twilight 6:26 AM MDT 7:13 PM MDT
Astronomical Twilight 5:57 AM MDT 7:42 PM MDT
Moon No Moon Rise 1:38 PM MDT (10/26)
Length of Visible Light 11h 47m
Length of Day
10h 55m
Waning Gibbous, 52% of the Moon is Illuminated
Oct 26
Waning Gibbous
Oct 26
Last Quarter
Nov 3
New
Nov 9
First Quarter
Nov 17
Full

Hourly Weather History & Observations

Time (MDT) Temp. Windchill Dew Point Humidity Pressure Visibility Wind Dir Wind Speed Gust Speed Precip Events Conditions
12:52 AM 50.0 °F - 39.0 °F 66% 30.13 in 10.0 mi WNW 4.6 mph - N/A   Scattered Clouds
1:52 AM 48.0 °F - 39.9 °F 74% 30.13 in 10.0 mi Calm Calm - N/A   Partly Cloudy
2:52 AM 44.1 °F - 39.0 °F 82% 30.15 in 10.0 mi Calm Calm - N/A   Partly Cloudy
3:52 AM 42.1 °F 38.4 °F 37.0 °F 82% 30.16 in 10.0 mi SE 5.8 mph - N/A   Partly Cloudy
4:52 AM 44.1 °F 41.5 °F 37.9 °F 79% 30.17 in 10.0 mi ENE 4.6 mph - N/A   Partly Cloudy
5:52 AM 44.1 °F - 37.9 °F 79% 30.20 in 10.0 mi Calm Calm - N/A   Partly Cloudy
6:52 AM 43.0 °F 40.3 °F 37.0 °F 80% 30.22 in 10.0 mi NNE 4.6 mph - N/A   Partly Cloudy
7:52 AM 44.1 °F - 36.0 °F 73% 30.23 in 10.0 mi Calm Calm - N/A   Partly Cloudy
8:52 AM 46.0 °F - 39.9 °F 79% 30.26 in 10.0 mi Calm Calm - N/A   Scattered Clouds
9:52 AM 50.0 °F - 41.0 °F 71% 30.27 in 10.0 mi NNW 3.5 mph - N/A   Partly Cloudy
10:52 AM 55.0 °F - 41.0 °F 59% 30.25 in 10.0 mi NNW 6.9 mph - N/A   Scattered Clouds
11:52 AM 57.0 °F - 41.0 °F 55% 30.25 in 10.0 mi NW 4.6 mph - N/A   Scattered Clouds
12:52 PM 62.1 °F - 41.0 °F 46% 30.21 in 10.0 mi Calm Calm - N/A   Scattered Clouds
1:52 PM 62.1 °F - 39.0 °F 43% 30.19 in 10.0 mi SSW 3.5 mph - N/A   Scattered Clouds
2:52 PM 64.9 °F - 37.9 °F 37% 30.17 in 10.0 mi Calm Calm - N/A   Scattered Clouds
3:52 PM 64.0 °F - 37.0 °F 37% 30.18 in 10.0 mi Calm Calm - N/A   Scattered Clouds
4:52 PM 64.0 °F - 36.0 °F 35% 30.17 in 10.0 mi Variable 4.6 mph - N/A   Scattered Clouds
5:52 PM 64.0 °F - 36.0 °F 35% 30.16 in 10.0 mi Calm Calm - N/A   Scattered Clouds
6:52 PM 62.1 °F - 37.0 °F 39% 30.18 in 10.0 mi SW 3.5 mph - N/A   Scattered Clouds
7:52 PM 57.0 °F - 37.0 °F 47% 30.22 in 10.0 mi SE 4.6 mph - N/A   Mostly Cloudy
8:52 PM 57.9 °F - 35.1 °F 42% 30.21 in 10.0 mi East 5.8 mph - N/A   Mostly Cloudy
9:52 PM 55.9 °F - 34.0 °F 44% 30.21 in 10.0 mi ESE 6.9 mph - N/A   Mostly Cloudy
10:52 PM 55.0 °F - 34.0 °F 45% 30.19 in 10.0 mi East 6.9 mph - N/A   Partly Cloudy
11:52 PM 53.1 °F - 34.0 °F 48% 30.17 in 10.0 mi East 5.8 mph - N/A   Clear